Weather History for KACV - November, 2012

Change the Weather History Date:

Thursday, November 29, 2012

  Actual Average Record
Temperature  
Mean Temperature 55 °F -  
Max Temperature 59 °F 55 °F 63 °F (1999)
Min Temperature 51 °F 40 °F 28 °F (2004)
Degree Days  
Heating Degree Days 10    
Growing Degree Days 5 (Base 50)    
Moisture  
Dew Point 52 °F    
Average Humidity 91    
Maximum Humidity 100    
Minimum Humidity 55    
Precipitation  
Precipitation 2.32 in - - ()
Sea Level Pressure  
Sea Level Pressure 29.68 in    
Wind  
Wind Speed 14 mph (South)    
Max Wind Speed 25 mph    
Max Gust Speed 40 mph    
Visibility 5 miles    
Events Rain    
Averages and records for this station are not official NWS values.
T = Trace of Precipitation, MM = Missing Value Source: NWS Daily Summary

Daily Weather History Graph

Daily Weather History Graph

Search for Another Location

Airport or City:

Trip Planner

Search our weather history database for the weather conditions in past years. The results will help you decide how hot, cold, wet, or windy it might be!

Date:

Astronomy

Nov. 29, 2012 Rise Set
Actual Time 7:20 AM PST 4:49 PM PST
Civil Twilight 6:49 AM PST 5:19 PM PST
Nautical Twilight 6:15 AM PST 5:53 PM PST
Astronomical Twilight 5:42 AM PST 6:26 PM PST
Moon 5:57 PM PST (11/29) 8:11 AM PST (11/29)
Length of Visible Light 10h 29m
Length of Day
9h 28m
Full, 99% of the Moon is Illuminated
Nov 29
Full
Dec 6
Last Quarter
Dec 13
New
Dec 19
First Quarter
Dec 28
Full

Hourly Weather History & Observations

Time (PST) Temp. Dew Point Humidity Pressure Visibility Wind Dir Wind Speed Gust Speed Precip Events Conditions
12:53 AM 59.0 °F 43.0 °F 55% 29.78 in 10.0 mi SSE 21.9 mph 40.3 mph N/A   Overcast
1:53 AM 59.0 °F 43.0 °F 55% 29.76 in 10.0 mi SSE 25.3 mph 36.8 mph N/A   Overcast
2:53 AM 57.0 °F 44.1 °F 62% 29.73 in 10.0 mi SSE 24.2 mph 36.8 mph N/A   Mostly Cloudy
4:53 AM 57.9 °F 46.0 °F 65% 29.69 in 10.0 mi SSE 23.0 mph 36.8 mph N/A   Overcast
5:53 AM 57.0 °F 48.9 °F 74% 29.71 in 10.0 mi South 21.9 mph 29.9 mph 0.01 in Rain Light Rain
6:46 AM 55.4 °F 51.8 °F 88% 29.73 in 2.5 mi SSE 10.4 mph 20.7 mph 0.22 in Rain Heavy Rain
6:53 AM 54.0 °F 53.1 °F 97% 29.75 in 3.0 mi SSE 6.9 mph 18.4 mph 0.25 in Rain Heavy Rain
7:16 AM 53.6 °F 53.6 °F 100% 29.74 in 2.5 mi WSW 17.3 mph 24.2 mph 0.15 in Rain Heavy Rain
7:24 AM 51.8 °F 51.8 °F 100% 29.73 in 1.5 mi SSW 10.4 mph 24.2 mph 0.24 in Rain Heavy Rain
7:35 AM 51.8 °F 51.8 °F 100% 29.72 in 2.5 mi Variable 4.6 mph - 0.32 in Rain Heavy Rain
7:53 AM 52.0 °F 51.1 °F 97% 29.75 in 1.8 mi Calm Calm - 0.40 in Rain Heavy Rain
8:01 AM 51.8 °F 51.8 °F 100% 29.73 in 2.0 mi North 3.5 mph - 0.04 in Rain Heavy Rain
8:08 AM 51.8 °F 51.8 °F 100% 29.72 in 2.0 mi Calm Calm - 0.07 in Rain Heavy Rain
8:43 AM 51.8 °F 51.8 °F 100% 29.73 in 2.0 mi Calm Calm - 0.28 in Rain Heavy Rain
8:48 AM 51.8 °F 51.8 °F 100% 29.73 in 1.8 mi Variable 4.6 mph - 0.32 in Rain Heavy Rain
8:53 AM 53.1 °F 53.1 °F 100% 29.74 in 1.5 mi Variable 3.5 mph - 0.36 in Rain Heavy Rain
9:01 AM 53.6 °F 53.6 °F 100% 29.73 in 2.0 mi East 3.5 mph - 0.04 in Rain Heavy Rain
9:14 AM 53.6 °F 53.6 °F 100% 29.73 in 1.8 mi Calm Calm - 0.11 in Rain Heavy Rain
9:25 AM 53.6 °F 53.6 °F 100% 29.74 in 1.8 mi SW 5.8 mph - 0.18 in Rain Heavy Rain
9:29 AM 53.6 °F 53.6 °F 100% 29.73 in 1.8 mi SSW 9.2 mph - 0.21 in Rain Heavy Rain
9:38 AM 53.6 °F 53.6 °F 100% 29.73 in 0.8 mi SSW 9.2 mph - 0.35 in Rain Heavy Rain
9:46 AM 53.6 °F 53.6 °F 100% 29.74 in 1.0 mi SSW 11.5 mph - 0.43 in Rain Heavy Rain
9:53 AM 54.0 °F 53.1 °F 97% 29.77 in 1.2 mi SSW 11.5 mph - 0.46 in Rain Heavy Rain
10:04 AM 53.6 °F 51.8 °F 94% 29.73 in 2.0 mi South 11.5 mph - 0.04 in Rain Rain
10:53 AM 54.0 °F 53.1 °F 97% 29.75 in 2.0 mi SSE 15.0 mph - 0.26 in Rain Rain
11:18 AM 53.6 °F 51.8 °F 94% 29.69 in 5.0 mi SE 18.4 mph 25.3 mph 0.07 in Rain Light Rain
11:53 AM 54.0 °F 51.1 °F 90% 29.69 in 8.0 mi SSE 19.6 mph 31.1 mph 0.09 in Rain Light Rain
12:51 PM 53.6 °F 51.8 °F 94% 29.65 in 2.0 mi SSE 11.5 mph - 0.09 in Rain Heavy Rain
12:53 PM 54.0 °F 52.0 °F 93% 29.67 in 1.8 mi SSE 10.4 mph - 0.10 in Rain Heavy Rain
1:14 PM 53.6 °F 51.8 °F 94% 29.62 in 3.0 mi SE 6.9 mph - 0.07 in Rain Light Rain
1:53 PM 57.9 °F 53.1 °F 84% 29.65 in 10.0 mi South 15.0 mph 23.0 mph 0.07 in   Overcast
2:06 PM 57.2 °F 53.6 °F 88% 29.63 in 3.0 mi South 11.5 mph 20.7 mph 0.03 in Rain Rain
2:53 PM 55.9 °F 54.0 °F 93% 29.64 in 4.0 mi South 6.9 mph - 0.14 in Rain Heavy Rain
3:41 PM 57.2 °F 55.4 °F 94% 29.60 in 10.0 mi SSE 11.5 mph - 0.02 in Rain Light Rain
3:53 PM 57.9 °F 55.9 °F 93% 29.61 in 10.0 mi SSE 8.1 mph - 0.02 in   Overcast
4:53 PM 57.9 °F 55.0 °F 90% 29.62 in 10.0 mi South 10.4 mph - 0.02 in   Overcast
5:53 PM 57.9 °F 55.0 °F 90% 29.63 in 10.0 mi South 13.8 mph 19.6 mph 0.00 in   Overcast
6:53 PM 57.9 °F 55.0 °F 90% 29.63 in 10.0 mi South 11.5 mph - N/A   Overcast
7:53 PM 57.0 °F 55.9 °F 96% 29.62 in 10.0 mi SSE 6.9 mph - 0.02 in   Overcast
8:53 PM 57.9 °F 55.9 °F 93% 29.62 in 4.0 mi SSW 21.9 mph 33.4 mph 0.04 in Rain Rain
9:06 PM 57.2 °F 55.4 °F 94% 29.61 in 5.0 mi South 20.7 mph 31.1 mph 0.02 in Rain Rain
9:12 PM 57.2 °F 55.4 °F 94% 29.61 in 4.0 mi SSW 19.6 mph 31.1 mph 0.05 in Rain Heavy Rain
9:22 PM 57.2 °F 55.4 °F 94% 29.59 in 7.0 mi South 16.1 mph 33.4 mph 0.06 in Rain Light Rain
9:30 PM 57.2 °F 55.4 °F 94% 29.60 in 9.0 mi South 15.0 mph - 0.07 in Rain Light Rain
9:53 PM 57.0 °F 55.0 °F 93% 29.60 in 10.0 mi SSE 11.5 mph 20.7 mph 0.08 in Rain Light Rain
10:53 PM 57.9 °F 52.0 °F 81% 29.59 in 10.0 mi SSE 12.7 mph - 0.00 in   Overcast
11:53 PM 57.0 °F 53.1 °F 87% 29.59 in 10.0 mi SSE 9.2 mph - 0.00 in   Overcast